MAS7040 WMKK-WMKK

Flight info

Callsign MAS7040
Flight time 0h 18m
Altitude 4500
Route WMKK/32R TEST FLIGHT
Aircraft A333/H-SDE3GHIJ2J3J5M1RVWXY/LB2D1

Departure

Time 2026-05-07 13:04
Airport Kuala Lumpur International Airport (WMKK)

Arrival

Time 2026-05-07 13:23
Airport Kuala Lumpur International Airport (WMKK)
Time Latitude Longitude Altitude Speed Heading
2026-05-07 12:51 2.75391 101.70847 66 ft 0 kts 326°
2026-05-07 12:52 2.75377 101.70856 66 ft 4 kts 326°
2026-05-07 12:53 2.75355 101.70872 68 ft 4 kts 329°
2026-05-07 12:53 2.75332 101.70878 68 ft 4 kts 19°
2026-05-07 12:53 2.75311 101.70863 70 ft 4 kts 53°
2026-05-07 12:53 2.75304 101.70854 66 ft 1 kts 56°
2026-05-07 12:54 2.75304 101.70853 66 ft 0 kts 56°
2026-05-07 12:57 2.75307 101.70857 77 ft 2 kts 56°
2026-05-07 12:57 2.75317 101.70872 66 ft 3 kts 56°
2026-05-07 12:57 2.75333 101.70896 72 ft 5 kts 56°
2026-05-07 12:57 2.75362 101.70940 68 ft 9 kts 56°
2026-05-07 12:58 2.75400 101.70998 72 ft 11 kts 56°
2026-05-07 12:58 2.75447 101.71068 67 ft 13 kts 56°
2026-05-07 12:58 2.75499 101.71146 68 ft 14 kts 56°
2026-05-07 12:58 2.75557 101.71234 67 ft 16 kts 56°
2026-05-07 12:59 2.75599 101.71336 67 ft 15 kts 107°
2026-05-07 12:59 2.75531 101.71400 66 ft 14 kts 145°
2026-05-07 12:59 2.75449 101.71456 65 ft 15 kts 147°
2026-05-07 12:59 2.75356 101.71517 67 ft 17 kts 147°
2026-05-07 13:00 2.75253 101.71584 72 ft 18 kts 147°
2026-05-07 13:00 2.75145 101.71654 68 ft 19 kts 147°
2026-05-07 13:00 2.75033 101.71730 68 ft 20 kts 145°
2026-05-07 13:00 2.74921 101.71809 85 ft 20 kts 146°
2026-05-07 13:01 2.74806 101.71886 86 ft 20 kts 146°
2026-05-07 13:01 2.74687 101.71964 89 ft 19 kts 149°
2026-05-07 13:01 2.74627 101.72044 87 ft 12 kts 76°
2026-05-07 13:01 2.74668 101.72112 89 ft 12 kts 54°
2026-05-07 13:02 2.74724 101.72189 82 ft 15 kts 54°
2026-05-07 13:02 2.74772 101.72240 85 ft 2 kts
2026-05-07 13:02 2.74798 101.72232 87 ft 5 kts 339°
2026-05-07 13:02 2.74836 101.72210 84 ft 7 kts 327°
2026-05-07 13:03 2.74869 101.72187 82 ft 0 kts 323°
2026-05-07 13:03 2.74936 101.72137 87 ft 42 kts 323°
2026-05-07 13:03 2.75358 101.71856 85 ft 105 kts 326°
2026-05-07 13:04 2.76126 101.71348 102 ft 156 kts 327°
2026-05-07 13:04 2.77071 101.70721 567 ft 170 kts 325°
2026-05-07 13:04 2.78035 101.70060 1369 ft 167 kts 326°
2026-05-07 13:04 2.79057 101.69374 1792 ft 189 kts 326°
2026-05-07 13:05 2.80319 101.68764 2051 ft 217 kts 342°
2026-05-07 13:05 2.81907 101.68585 2293 ft 247 kts
2026-05-07 13:05 2.83460 101.69392 2837 ft 261 kts 47°
2026-05-07 13:05 2.84367 101.70971 3610 ft 265 kts 71°
2026-05-07 13:06 2.84761 101.72783 4173 ft 269 kts 83°
2026-05-07 13:06 2.84892 101.74662 4413 ft 271 kts 88°
2026-05-07 13:06 2.84929 101.76545 4443 ft 272 kts 89°
2026-05-07 13:06 2.84993 101.78418 4442 ft 275 kts 87°
2026-05-07 13:07 2.85129 101.80318 4440 ft 273 kts 85°
2026-05-07 13:07 2.85314 101.82229 4441 ft 274 kts 84°
2026-05-07 13:07 2.85526 101.84098 4441 ft 273 kts 83°
2026-05-07 13:07 2.85763 101.85988 4440 ft 273 kts 83°
2026-05-07 13:08 2.86005 101.87876 4441 ft 273 kts 83°
2026-05-07 13:08 2.86133 101.89764 4441 ft 273 kts 91°
2026-05-07 13:08 2.86060 101.91664 4441 ft 273 kts 93°
2026-05-07 13:08 2.85943 101.93562 4441 ft 273 kts 94°
2026-05-07 13:09 2.85672 101.95441 4440 ft 273 kts 105°
2026-05-07 13:09 2.84896 101.97167 4443 ft 272 kts 123°
2026-05-07 13:09 2.83731 101.98655 4440 ft 273 kts 134°
2026-05-07 13:09 2.82196 101.99759 4441 ft 273 kts 156°
2026-05-07 13:10 2.80336 102.00152 4445 ft 274 kts 179°
2026-05-07 13:10 2.78443 102.00034 4442 ft 272 kts 185°
2026-05-07 13:10 2.76556 101.99814 4442 ft 274 kts 187°
2026-05-07 13:10 2.74642 101.99573 4437 ft 279 kts 187°
2026-05-07 13:11 2.72744 101.99338 4437 ft 276 kts 186°
2026-05-07 13:11 2.70816 101.99104 4442 ft 275 kts 186°
2026-05-07 13:11 2.68963 101.98881 4441 ft 266 kts 186°
2026-05-07 13:11 2.67182 101.98665 4467 ft 249 kts 186°
2026-05-07 13:12 2.65517 101.98463 4473 ft 234 kts 186°
2026-05-07 13:12 2.63943 101.98274 4473 ft 222 kts 186°
2026-05-07 13:12 2.62424 101.98091 4472 ft 219 kts 186°
2026-05-07 13:12 2.60907 101.97911 4469 ft 220 kts 186°
2026-05-07 13:13 2.59389 101.97729 4469 ft 220 kts 186°
2026-05-07 13:13 2.57870 101.97541 4469 ft 219 kts 186°
2026-05-07 13:13 2.56353 101.97354 4469 ft 220 kts 186°
2026-05-07 13:13 2.54842 101.97159 4469 ft 219 kts 189°
2026-05-07 13:14 2.53380 101.96716 4468 ft 221 kts 206°
2026-05-07 13:14 2.52182 101.95803 4498 ft 210 kts 227°
2026-05-07 13:14 2.51327 101.94692 4482 ft 195 kts 234°
2026-05-07 13:14 2.50591 101.93602 4472 ft 184 kts 236°
2026-05-07 13:15 2.49889 101.92541 4471 ft 182 kts 236°
2026-05-07 13:15 2.49240 101.91449 4467 ft 183 kts 247°
2026-05-07 13:15 2.49068 101.90207 4465 ft 184 kts 280°
2026-05-07 13:15 2.49647 101.89110 4469 ft 184 kts 315°
2026-05-07 13:16 2.50646 101.88332 4474 ft 180 kts 325°
2026-05-07 13:16 2.51697 101.87650 4469 ft 181 kts 327°
2026-05-07 13:16 2.52756 101.86966 4470 ft 182 kts 328°
2026-05-07 13:16 2.53823 101.86271 4469 ft 183 kts 327°
2026-05-07 13:17 2.54890 101.85567 4466 ft 183 kts 328°
2026-05-07 13:17 2.55971 101.84900 4464 ft 185 kts 329°
2026-05-07 13:17 2.57050 101.84211 4318 ft 184 kts 327°
2026-05-07 13:17 2.58108 101.83496 4072 ft 183 kts 326°
2026-05-07 13:18 2.59166 101.82778 3792 ft 185 kts 326°
2026-05-07 13:18 2.60238 101.82056 3515 ft 185 kts 326°
2026-05-07 13:18 2.61308 101.81336 3251 ft 184 kts 326°
2026-05-07 13:18 2.62356 101.80634 3006 ft 181 kts 327°
2026-05-07 13:19 2.63380 101.79941 2771 ft 179 kts 326°
2026-05-07 13:19 2.64407 101.79248 2522 ft 178 kts 326°
2026-05-07 13:19 2.65424 101.78564 2310 ft 172 kts 327°
2026-05-07 13:19 2.66387 101.77913 2074 ft 163 kts 326°
2026-05-07 13:20 2.67300 101.77298 1865 ft 152 kts 326°
2026-05-07 13:20 2.68141 101.76732 1686 ft 141 kts 326°
2026-05-07 13:20 2.68952 101.76184 1488 ft 139 kts 326°
2026-05-07 13:20 2.69751 101.75646 1304 ft 138 kts 326°
2026-05-07 13:21 2.70537 101.75116 1111 ft 138 kts 326°
2026-05-07 13:21 2.71334 101.74578 942 ft 138 kts 325°
2026-05-07 13:21 2.72115 101.74028 744 ft 138 kts 325°
2026-05-07 13:21 2.72906 101.73491 564 ft 137 kts 326°
2026-05-07 13:22 2.73690 101.72978 403 ft 135 kts 326°
2026-05-07 13:22 2.74468 101.72451 228 ft 134 kts 326°
2026-05-07 13:22 2.75238 101.71931 87 ft 128 kts 326°
2026-05-07 13:22 2.75848 101.71529 69 ft 77 kts 326°
2026-05-07 13:23 2.76131 101.71339 73 ft 20 kts 326°
2026-05-07 13:23 2.76201 101.71292 66 ft 16 kts 326°
2026-05-07 13:23 2.76298 101.71227 65 ft 18 kts 326°
2026-05-07 13:23 2.76420 101.71138 69 ft 24 kts 317°